When you browse on this site, cookies collect data to enhance your experience and personalize the content and advertising you see.
Visit our Privacy Policy to learn more. By continuing to use the site, you agree to this use of cookies and data.
  • In France
  • List of Countries
  • For 7 days
  • Water Temperature
  • Satellite Maps
  • Weather Map
  • Weather Widgets
  • user-avatar
    Login

    Hourly Weather Tarin Kowt

    Today, 18 November, Sunday

    Time Temperature Precipitation Wind Pressure Humidity
    00:00 +10°C° 0 mm 1 mps 617 mmHg 50%
    01:00 +10°C° 0 mm 1 mps 616 mmHg 52%
    02:00 +9°C° 0 mm 1 mps 616 mmHg 54%
    03:00 +9°C° 0 mm 1 mps 616 mmHg 56%
    04:00 +8°C° 0 mm 1 mps 616 mmHg 57%
    05:00 +9°C° 0 mm 1 mps 616 mmHg 56%
    06:00 +9°C° 0 mm 1 mps 616 mmHg 55%
    07:00 +9°C° 0 mm 1 mps 617 mmHg 54%
    08:00 +11°C° 0 mm 1 mps 617 mmHg 49%
    09:00 +13°C° 0 mm 1 mps 618 mmHg 43%
    10:00 +15°C° 0 mm 1 mps 619 mmHg 37%
    11:00 +15°C° 0 mm 2 mps 619 mmHg 34%
    12:00 +16°C° 0 mm 2 mps 619 mmHg 32%
    13:00 +17°C° 0 mm 3 mps 618 mmHg 29%
    14:00 +16°C° 0 mm 3 mps 618 mmHg 28%
    15:00 +16°C° 0 mm 3 mps 618 mmHg 28%
    16:00 +16°C° 0 mm 3 mps 618 mmHg 27%
    17:00 +13°C° 0 mm 3 mps 618 mmHg 29%
    18:00 +13°C° 0 mm 2 mps 618 mmHg 32%
    19:00 +12°C° 0 mm 2 mps 617 mmHg 34%
    20:00 +11°C° 0 mm 1 mps 617 mmHg 36%
    21:00 +10°C° 0 mm 1 mps 617 mmHg 38%
    22:00 +9°C° 0 mm 1 mps 617 mmHg 40%
    23:00 +9°C° 0 mm 1 mps 617 mmHg 42%

    Tomorrow, 19 November, Monday

    Time Temperature Precipitation Wind Pressure Humidity
    00:00 +7°C° 0 mm 0 mps 616 mmHg 43%
    01:00 +7°C° 0 mm 0 mps 616 mmHg 45%
    02:00 +6°C° 0 mm 0 mps 616 mmHg 46%
    03:00 +6°C° 0 mm 0 mps 616 mmHg 48%
    04:00 +5°C° 0 mm 0 mps 616 mmHg 49%
    05:00 +6°C° 0 mm 0 mps 617 mmHg 48%
    06:00 +6°C° 0 mm 0 mps 617 mmHg 48%
    07:00 +7°C° 0 mm 1 mps 618 mmHg 47%
    08:00 +9°C° 0 mm 1 mps 619 mmHg 42%
    09:00 +11°C° 0 mm 1 mps 620 mmHg 37%
    10:00 +13°C° 0 mm 1 mps 621 mmHg 32%
    11:00 +13°C° 0 mm 1 mps 621 mmHg 30%
    12:00 +14°C° 0 mm 2 mps 620 mmHg 27%
    13:00 +15°C° 0 mm 2 mps 620 mmHg 25%
    14:00 +15°C° 0 mm 2 mps 620 mmHg 25%
    15:00 +14°C° 0 mm 2 mps 620 mmHg 25%
    16:00 +14°C° 0 mm 2 mps 620 mmHg 25%
    17:00 +13°C° 0 mm 1 mps 620 mmHg 28%
    18:00 +11°C° 0 mm 1 mps 620 mmHg 32%
    19:00 +9°C° 0 mm 0 mps 619 mmHg 35%
    20:00 +8°C° 0 mm 0 mps 619 mmHg 37%
    21:00 +8°C° 0 mm 0 mps 619 mmHg 38%
    22:00 +7°C° 0 mm 0 mps 619 mmHg 40%
    23:00 +7°C° 0 mm 0 mps 619 mmHg 40%

    Day after tomorrow, 20 November, Tuesday

    Time Temperature Precipitation Wind Pressure Humidity
    00:00 +6°C° 0 mm 0 mps 619 mmHg 41%
    01:00 +7°C° 0 mm 1 mps 619 mmHg 42%
    02:00 +7°C° 0 mm 1 mps 618 mmHg 42%
    03:00 +7°C° 0 mm 1 mps 618 mmHg 42%
    04:00 +6°C° 0 mm 1 mps 618 mmHg 42%
    05:00 +7°C° 0 mm 1 mps 618 mmHg 41%
    06:00 +7°C° 0 mm 1 mps 619 mmHg 39%
    07:00 +7°C° 0 mm 1 mps 619 mmHg 37%
    08:00 +9°C° 0 mm 1 mps 620 mmHg 32%
    09:00 +11°C° 0 mm 1 mps 621 mmHg 28%
    10:00 +12°C° 0 mm 0 mps 622 mmHg 23%
    11:00 +14°C° 0 mm 1 mps 622 mmHg 21%
    12:00 +15°C° 0 mm 1 mps 621 mmHg 20%
    13:00 +16°C° 0 mm 1 mps 621 mmHg 19%
    14:00 +15°C° 0 mm 1 mps 621 mmHg 19%
    15:00 +15°C° 0 mm 1 mps 621 mmHg 20%
    16:00 +15°C° 0 mm 1 mps 620 mmHg 21%
    17:00 +14°C° 0 mm 1 mps 620 mmHg 23%
    18:00 +12°C° 0 mm 1 mps 620 mmHg 26%
    19:00 +11°C° 0 mm 1 mps 620 mmHg 28%
    20:00 +11°C° 0 mm 1 mps 620 mmHg 28%
    21:00 +11°C° 0 mm 1 mps 620 mmHg 28%
    22:00 +10°C° 0 mm 1 mps 620 mmHg 29%
    23:00 +9°C° 0 mm 2 mps 619 mmHg 29%

    21 November, Wednesday

    Time Temperature Precipitation Wind Pressure Humidity
    00:00 +9°C° 0 mm 2 mps 619 mmHg 30%
    01:00 +9°C° 0 mm 2 mps 619 mmHg 30%
    02:00 +9°C° 0 mm 2 mps 618 mmHg 32%
    03:00 +8°C° 0 mm 2 mps 618 mmHg 33%
    04:00 +9°C° 0 mm 1 mps 618 mmHg 34%
    05:00 +8°C° 0.1 mm 2 mps 618 mmHg 36%
    06:00 +9°C° 0.1 mm 2 mps 618 mmHg 37%
    07:00 +9°C° 0.1 mm 3 mps 619 mmHg 39%
    08:00 +10°C° 0.2 mm 3 mps 619 mmHg 40%
    09:00 +11°C° 0.2 mm 3 mps 619 mmHg 40%
    10:00 +12°C° 0.2 mm 3 mps 620 mmHg 40%
    11:00 +12°C° 0.3 mm 3 mps 619 mmHg 43%
    12:00 +11°C° 0.3 mm 3 mps 618 mmHg 46%
    13:00 +12°C° 0.3 mm 2 mps 618 mmHg 49%
    14:00 +12°C° 0.2 mm 2 mps 618 mmHg 50%
    15:00 +12°C° 0.2 mm 2 mps 617 mmHg 50%
    16:00 +12°C° 0.2 mm 2 mps 617 mmHg 51%
    17:00 +12°C° 0.6 mm 2 mps 617 mmHg 55%
    18:00 +10°C° 0.6 mm 2 mps 617 mmHg 59%
    19:00 +10°C° 0.6 mm 2 mps 617 mmHg 63%
    20:00 +9°C° 1.5 mm 2 mps 617 mmHg 68%
    21:00 +9°C° 1.5 mm 2 mps 617 mmHg 73%
    22:00 +8°C° 1.5 mm 2 mps 617 mmHg 77%
    23:00 +8°C° 0.4 mm 2 mps 617 mmHg 78%

    22 November, Thursday

    Time Temperature Precipitation Wind Pressure Humidity
    00:00 +8°C° 0.4 mm 2 mps 617 mmHg 79%
    01:00 +9°C° 0.4 mm 1 mps 617 mmHg 80%
    02:00 +9°C° 0.2 mm 1 mps 617 mmHg 81%
    03:00 +9°C° 0.2 mm 1 mps 617 mmHg 82%
    04:00 +9°C° 0.2 mm 1 mps 617 mmHg 83%
    05:00 +9°C° 0.3 mm 1 mps 617 mmHg 82%
    06:00 +9°C° 0.3 mm 1 mps 618 mmHg 82%
    07:00 +9°C° 0.3 mm 1 mps 618 mmHg 82%
    08:00 +10°C° 0 mm 1 mps 619 mmHg 75%
    09:00 +11°C° 0 mm 1 mps 619 mmHg 67%
    10:00 +12°C° 0 mm 1 mps 620 mmHg 60%
    11:00 +13°C° 0 mm 1 mps 620 mmHg 56%
    12:00 +13°C° 0 mm 2 mps 620 mmHg 52%
    13:00 +14°C° 0 mm 2 mps 620 mmHg 48%
    14:00 +14°C° 0 mm 2 mps 620 mmHg 47%
    15:00 +14°C° 0 mm 2 mps 620 mmHg 46%
    16:00 +14°C° 0 mm 1 mps 620 mmHg 45%
    17:00 +13°C° 0 mm 1 mps 620 mmHg 48%
    18:00 +13°C° 0 mm 1 mps 620 mmHg 51%
    19:00 +11°C° 0 mm 0 mps 621 mmHg 54%
    20:00 +11°C° 0 mm 0 mps 621 mmHg 56%
    21:00 +11°C° 0 mm 1 mps 621 mmHg 57%
    22:00 +11°C° 0 mm 1 mps 621 mmHg 59%
    23:00 +10°C° 0 mm 1 mps 621 mmHg 59%

    23 November, Friday

    Time Temperature Precipitation Wind Pressure Humidity
    00:00 +10°C° 0 mm 1 mps 621 mmHg 60%
    01:00 +10°C° 0 mm 1 mps 620 mmHg 61%
    02:00 +10°C° 0 mm 1 mps 620 mmHg 61%
    03:00 +8°C° 0 mm 2 mps 620 mmHg 62%
    04:00 +8°C° 0 mm 2 mps 620 mmHg 62%
    05:00 +8°C° 0 mm 2 mps 620 mmHg 61%
    06:00 +8°C° 0 mm 2 mps 621 mmHg 61%
    07:00 +8°C° 0 mm 2 mps 621 mmHg 60%
    08:00 +10°C° 0 mm 2 mps 622 mmHg 54%
    09:00 +12°C° 0 mm 2 mps 623 mmHg 48%
    10:00 +14°C° 0 mm 1 mps 623 mmHg 41%
    11:00 +14°C° 0 mm 1 mps 623 mmHg 39%
    12:00 +15°C° 0 mm 1 mps 623 mmHg 36%
    13:00 +16°C° 0 mm 1 mps 622 mmHg 34%
    14:00 +16°C° 0 mm 1 mps 622 mmHg 34%
    15:00 +16°C° 0 mm 1 mps 622 mmHg 34%
    16:00 +16°C° 0 mm 1 mps 622 mmHg 34%
    17:00 +15°C° 0 mm 1 mps 622 mmHg 36%
    18:00 +14°C° 0 mm 1 mps 622 mmHg 38%
    19:00 +14°C° 0 mm 2 mps 622 mmHg 40%
    20:00 +13°C° 0 mm 2 mps 622 mmHg 41%
    21:00 +13°C° 0 mm 2 mps 622 mmHg 42%
    22:00 +13°C° 0 mm 2 mps 622 mmHg 42%
    23:00 +12°C° 0 mm 2 mps 622 mmHg 43%
    Show more